TimeEDT,TemperatureF,Dew PointF,Humidity,Sea Level PressureIn,VisibilityMPH,Wind Direction,Wind SpeedMPH,Gust SpeedMPH,PrecipitationIn,Events,Conditions,WindDirDegrees,DateUTC
12:53 AM,61.0,50.0,67,30.06,10.0,SE,5.8,-,N/A,,Clear,130,2013-09-20 04:53:00
1:53 AM,55.0,48.9,80,30.05,10.0,Calm,Calm,-,N/A,,Clear,0,2013-09-20 05:53:00
2:53 AM,59.0,48.9,69,30.05,10.0,SE,4.6,-,N/A,,Clear,140,2013-09-20 06:53:00
3:53 AM,61.0,48.9,64,30.05,10.0,East,5.8,-,N/A,,Clear,100,2013-09-20 07:53:00
4:53 AM,60.1,48.9,67,30.05,10.0,ESE,5.8,-,N/A,,Clear,120,2013-09-20 08:53:00
5:53 AM,53.1,46.9,80,30.06,10.0,Calm,Calm,-,N/A,,Clear,0,2013-09-20 09:53:00
6:53 AM,62.1,46.9,58,30.06,10.0,SE,5.8,-,N/A,,Clear,140,2013-09-20 10:53:00
7:53 AM,64.9,51.1,61,30.06,10.0,SE,3.5,-,N/A,,Clear,140,2013-09-20 11:53:00
8:53 AM,71.1,53.1,53,30.06,10.0,ESE,6.9,-,N/A,,Clear,120,2013-09-20 12:53:00
9:53 AM,79.0,55.9,45,30.05,10.0,ESE,9.2,-,N/A,,Clear,110,2013-09-20 13:53:00
10:53 AM,86.0,59.0,40,30.05,10.0,Variable,4.6,-,N/A,,Clear,0,2013-09-20 14:53:00
11:53 AM,87.1,60.1,40,30.01,10.0,SE,9.2,-,N/A,,Clear,140,2013-09-20 15:53:00
12:53 PM,93.0,60.1,33,29.99,10.0,Variable,5.8,-,N/A,,Clear,0,2013-09-20 16:53:00
1:53 PM,95.0,57.9,29,29.96,10.0,SSE,10.4,-,N/A,,Clear,150,2013-09-20 17:53:00
2:53 PM,79.0,57.0,47,29.94,10.0,SSE,10.4,-,N/A,,Clear,150,2013-09-20 18:53:00
3:53 PM,77.0,55.9,48,29.93,10.0,SSE,10.4,-,N/A,,Clear,150,2013-09-20 19:53:00
4:53 PM,80.1,57.0,45,29.91,10.0,SSE,9.2,-,N/A,,Clear,150,2013-09-20 20:53:00
5:53 PM,80.1,55.9,43,29.90,10.0,SE,6.9,-,N/A,,Clear,140,2013-09-20 21:53:00
6:53 PM,71.1,57.9,63,29.90,10.0,ESE,6.9,-,N/A,,Clear,110,2013-09-20 22:53:00
7:53 PM,66.9,57.0,70,29.91,10.0,East,5.8,-,N/A,,Clear,100,2013-09-20 23:53:00
8:53 PM,64.9,57.9,78,29.89,10.0,ESE,6.9,-,N/A,,Clear,110,2013-09-21 00:53:00
9:53 PM,66.9,55.9,68,29.90,10.0,ESE,8.1,-,N/A,,Clear,110,2013-09-21 01:53:00
10:53 PM,64.9,55.0,70,29.90,10.0,East,6.9,-,N/A,,Clear,100,2013-09-21 02:53:00
11:53 PM,62.1,55.0,78,29.91,10.0,ESE,5.8,-,N/A,,Clear,120,2013-09-21 03:53:00